When you browse on this site, cookies collect data to enhance your experience and personalize the content and advertising you see.
Visit our Privacy Policy to learn more. By continuing to use the site, you agree to this use of cookies and data.
  • In Hungary
  • List of Countries
  • For 7 days
  • Water Temperature
  • Weather Map
  • News
  • Weather Widgets
  • user-avatar
    Login

    Hourly Weather Sterlitamak

    Today, 20 February, Thursday

    Time Temperature Precipitation Wind Pressure Humidity
    00:00 -5°C° 0.1 mm 6 mps 749 mmHg 93%
    01:00 -5°C° 0.1 mm 5 mps 749 mmHg 94%
    02:00 -5°C° 0.3 mm 5 mps 749 mmHg 94%
    03:00 -4°C° 0.3 mm 4 mps 749 mmHg 95%
    04:00 -3°C° 0 mm 4 mps 749 mmHg 97%
    05:00 -2°C° 0.3 mm 3 mps 749 mmHg 97%
    06:00 -2°C° 0.3 mm 3 mps 749 mmHg 97%
    07:00 -2°C° 0.3 mm 2 mps 749 mmHg 97%
    08:00 -1°C° 0.2 mm 3 mps 750 mmHg 98%
    09:00 -1°C° 0.2 mm 3 mps 750 mmHg 98%
    10:00 -1°C° 0.2 mm 3 mps 750 mmHg 98%
    11:00 -1°C° 0.1 mm 3 mps 750 mmHg 99%
    12:00 -1°C° 0.1 mm 3 mps 750 mmHg 99%
    13:00 -1°C° 0.1 mm 3 mps 750 mmHg 99%
    14:00 0°C° 0 mm 3 mps 750 mmHg 99%
    15:00 +1°C° 0 mm 2 mps 750 mmHg 99%
    16:00 +1°C° 0 mm 2 mps 751 mmHg 99%
    17:00 +1°C° 0.1 mm 2 mps 751 mmHg 99%
    18:00 +1°C° 0.1 mm 1 mps 751 mmHg 98%
    19:00 +1°C° 0.1 mm 1 mps 751 mmHg 98%
    20:00 +1°C° 0.1 mm 1 mps 751 mmHg 98%
    21:00 +1°C° 0.1 mm 1 mps 752 mmHg 97%
    22:00 0°C° 0.1 mm 1 mps 752 mmHg 97%
    23:00 0°C° 0 mm 1 mps 752 mmHg 97%

    Tomorrow, 21 February, Friday

    Time Temperature Precipitation Wind Pressure Humidity
    00:00 -1°C° 0 mm 1 mps 752 mmHg 96%
    01:00 -1°C° 0 mm 1 mps 752 mmHg 96%
    02:00 -2°C° 0 mm 1 mps 752 mmHg 96%
    03:00 -2°C° 0 mm 1 mps 753 mmHg 96%
    04:00 -2°C° 0 mm 1 mps 753 mmHg 96%
    05:00 -3°C° 0 mm 1 mps 753 mmHg 96%
    06:00 -3°C° 0 mm 1 mps 753 mmHg 95%
    07:00 -3°C° 0 mm 1 mps 753 mmHg 94%
    08:00 -2°C° 0 mm 1 mps 753 mmHg 94%
    09:00 -2°C° 0 mm 1 mps 754 mmHg 94%
    10:00 -1°C° 0 mm 1 mps 754 mmHg 93%
    17:00 -3°C° 0 mm 2 mps 754 mmHg 93%
    18:00 -3°C° 0 mm 2 mps 755 mmHg 94%
    19:00 -4°C° 0 mm 2 mps 755 mmHg 94%
    20:00 -2°C° 0 mm 1 mps 755 mmHg 93%
    21:00 -2°C° 0 mm 1 mps 756 mmHg 93%
    22:00 -3°C° 0 mm 1 mps 756 mmHg 93%
    23:00 -3°C° 0 mm 1 mps 756 mmHg 93%

    Day after tomorrow, 22 February, Saturday

    Time Temperature Precipitation Wind Pressure Humidity
    00:00 -3°C° 0 mm 1 mps 756 mmHg 94%
    01:00 -4°C° 0 mm 1 mps 756 mmHg 94%
    02:00 -4°C° 0 mm 1 mps 757 mmHg 94%
    03:00 -4°C° 0 mm 1 mps 757 mmHg 95%
    04:00 -4°C° 0 mm 1 mps 757 mmHg 95%
    05:00 -4°C° 0 mm 1 mps 757 mmHg 95%
    06:00 -5°C° 0 mm 0 mps 757 mmHg 95%
    07:00 -5°C° 0 mm 0 mps 757 mmHg 96%
    08:00 -4°C° 0 mm 0 mps 758 mmHg 95%
    09:00 -3°C° 0 mm 0 mps 758 mmHg 94%
    10:00 -3°C° 0 mm 0 mps 758 mmHg 93%
    11:00 -2°C° 0 mm 0 mps 759 mmHg 92%
    12:00 -2°C° 0 mm 0 mps 759 mmHg 90%
    13:00 -1°C° 0 mm 0 mps 759 mmHg 89%
    14:00 -1°C° 0 mm 0 mps 759 mmHg 88%
    15:00 -1°C° 0 mm 0 mps 759 mmHg 88%
    16:00 -1°C° 0 mm 0 mps 759 mmHg 87%
    17:00 -1°C° 0 mm 0 mps 759 mmHg 88%
    18:00 -2°C° 0 mm 0 mps 759 mmHg 90%
    19:00 -2°C° 0 mm 0 mps 759 mmHg 91%
    20:00 -2°C° 0 mm 0 mps 759 mmHg 92%
    21:00 -2°C° 0 mm 1 mps 759 mmHg 93%
    22:00 -2°C° 0 mm 1 mps 759 mmHg 94%
    23:00 -3°C° 0 mm 1 mps 759 mmHg 94%

    23 February, Sunday

    Time Temperature Precipitation Wind Pressure Humidity
    00:00 -3°C° 0 mm 1 mps 759 mmHg 94%
    01:00 -6°C° 0 mm 2 mps 759 mmHg 94%
    02:00 -7°C° 0 mm 2 mps 759 mmHg 93%
    03:00 -8°C° 0 mm 2 mps 759 mmHg 93%
    04:00 -8°C° 0 mm 2 mps 758 mmHg 93%
    05:00 -9°C° 0 mm 2 mps 758 mmHg 93%
    06:00 -9°C° 0 mm 2 mps 758 mmHg 92%
    07:00 -9°C° 0 mm 2 mps 757 mmHg 92%
    08:00 -9°C° 0 mm 3 mps 757 mmHg 91%
    09:00 -8°C° 0 mm 3 mps 757 mmHg 90%
    10:00 -8°C° 0 mm 4 mps 756 mmHg 89%
    11:00 -8°C° 0 mm 4 mps 756 mmHg 88%
    12:00 -7°C° 0 mm 5 mps 755 mmHg 87%
    13:00 -6°C° 0 mm 5 mps 755 mmHg 87%
    14:00 -6°C° 0 mm 5 mps 754 mmHg 86%
    15:00 -6°C° 0 mm 5 mps 753 mmHg 86%
    16:00 -6°C° 0 mm 5 mps 753 mmHg 86%
    17:00 -7°C° 0 mm 5 mps 752 mmHg 86%
    18:00 -8°C° 0 mm 6 mps 752 mmHg 87%
    19:00 -8°C° 0 mm 6 mps 752 mmHg 88%
    20:00 -9°C° 0 mm 6 mps 751 mmHg 88%
    21:00 -9°C° 0 mm 6 mps 751 mmHg 89%
    22:00 -9°C° 0 mm 6 mps 750 mmHg 89%
    23:00 -9°C° 0 mm 6 mps 750 mmHg 89%

    24 February, Monday

    Time Temperature Precipitation Wind Pressure Humidity
    00:00 -10°C° 0 mm 6 mps 749 mmHg 90%
    01:00 -10°C° 0 mm 5 mps 749 mmHg 90%
    02:00 -10°C° 0 mm 5 mps 748 mmHg 90%
    03:00 -10°C° 0 mm 5 mps 747 mmHg 91%
    04:00 -10°C° 0 mm 5 mps 747 mmHg 91%
    05:00 -10°C° 0.1 mm 5 mps 746 mmHg 91%
    06:00 -10°C° 0.1 mm 5 mps 745 mmHg 92%
    07:00 -9°C° 0.1 mm 6 mps 745 mmHg 92%
    08:00 -9°C° 0.3 mm 6 mps 744 mmHg 93%
    09:00 -8°C° 0.3 mm 6 mps 744 mmHg 94%
    10:00 -7°C° 0.3 mm 7 mps 743 mmHg 94%
    11:00 -6°C° 0.3 mm 7 mps 742 mmHg 94%
    12:00 -4°C° 0.3 mm 7 mps 742 mmHg 94%
    13:00 -5°C° 0.3 mm 8 mps 741 mmHg 93%
    14:00 -4°C° 0.1 mm 8 mps 741 mmHg 93%
    15:00 -3°C° 0.1 mm 7 mps 740 mmHg 93%
    16:00 -2°C° 0.1 mm 7 mps 740 mmHg 93%
    17:00 -2°C° 0.6 mm 7 mps 740 mmHg 94%
    18:00 -2°C° 0.6 mm 7 mps 740 mmHg 96%
    19:00 -2°C° 0.6 mm 6 mps 740 mmHg 97%
    20:00 -2°C° 0.4 mm 6 mps 740 mmHg 97%
    21:00 -2°C° 0.4 mm 6 mps 740 mmHg 97%
    22:00 -2°C° 0.4 mm 6 mps 740 mmHg 97%
    23:00 -2°C° 0.5 mm 6 mps 740 mmHg 96%

    25 February, Tuesday

    Time Temperature Precipitation Wind Pressure Humidity
    00:00 -3°C° 0.5 mm 6 mps 740 mmHg 95%
    01:00 -3°C° 0.5 mm 6 mps 740 mmHg 94%
    02:00 -4°C° 0.1 mm 5 mps 741 mmHg 94%
    03:00 -5°C° 0.1 mm 5 mps 742 mmHg 93%
    04:00 -5°C° 0.1 mm 4 mps 742 mmHg 93%
    05:00 -4°C° 0 mm 4 mps 743 mmHg 93%
    06:00 -4°C° 0 mm 3 mps 743 mmHg 93%
    07:00 -4°C° 0 mm 3 mps 744 mmHg 93%
    08:00 -4°C° 0 mm 3 mps 745 mmHg 93%
    09:00 -3°C° 0 mm 2 mps 745 mmHg 92%
    10:00 -3°C° 0 mm 2 mps 746 mmHg 91%
    11:00 -2°C° 0 mm 3 mps 746 mmHg 92%
    12:00 -2°C° 0 mm 3 mps 746 mmHg 92%
    13:00 -2°C° 0 mm 3 mps 746 mmHg 92%
    14:00 -2°C° 0 mm 3 mps 746 mmHg 92%
    15:00 -2°C° 0 mm 2 mps 746 mmHg 92%
    16:00 0°C° 0 mm 1 mps 746 mmHg 92%
    17:00 -1°C° 0 mm 1 mps 746 mmHg 93%
    18:00 -2°C° 0 mm 1 mps 746 mmHg 93%
    19:00 -3°C° 0 mm 1 mps 747 mmHg 93%
    20:00 -4°C° 0 mm 1 mps 747 mmHg 93%
    21:00 -4°C° 0 mm 1 mps 747 mmHg 92%
    22:00 -4°C° 0 mm 1 mps 747 mmHg 92%
    23:00 -5°C° 0 mm 0 mps 747 mmHg 91%
    Show more